Time,TemperatureF,DewpointF,PressureIn,WindDirection,WindDirectionDegrees,WindSpeedMPH,WindSpeedGustMPH,Humidity,HourlyPrecipIn,Conditions,Clouds,dailyrainin,SolarRadiationWatts/m^2,SoftwareType,DateUTC
2013-04-11 00:00:00,76.5,71.0,29.97,South,169,7.0,17.0,83,0.00,,SCT016,0.01,0.00,VWS V14.00,2013-04-11 04:00:00,
2013-04-11 00:05:00,76.4,70.9,29.97,South,190,10.0,10.0,83,0.00,,SCT016,0.00,0.00,VWS V14.00,2013-04-11 04:05:00,
2013-04-11 00:10:00,76.3,71.1,29.97,SSE,157,12.0,14.0,84,0.00,,SCT016,0.00,0.00,VWS V14.00,2013-04-11 04:10:00,
2013-04-11 00:15:00,76.3,70.8,29.97,South,171,7.0,12.0,83,0.00,,SCT016,0.00,0.00,VWS V14.00,2013-04-11 04:15:00,
2013-04-11 00:20:00,76.3,70.8,29.97,SSE,161,5.0,11.0,83,0.00,,SCT016,0.00,0.00,VWS V14.00,2013-04-11 04:20:00,
2013-04-11 00:25:00,76.2,70.7,29.97,SSE,168,11.0,13.0,83,0.00,,SCT016,0.00,0.00,VWS V14.00,2013-04-11 04:25:00,
2013-04-11 00:30:00,76.3,70.8,29.97,SSE,165,4.0,9.0,83,0.00,,SCT016,0.00,0.00,VWS V14.00,2013-04-11 04:30:00,
2013-04-11 00:35:00,76.2,70.7,29.97,South,182,7.0,10.0,83,0.00,,SCT016,0.00,0.00,VWS V14.00,2013-04-11 04:35:00,
2013-04-11 00:41:00,76.2,70.7,29.96,SSE,160,10.0,13.0,83,0.00,,SCT016,0.00,0.00,VWS V14.00,2013-04-11 04:41:00,
2013-04-11 00:46:00,76.2,70.7,29.96,SSE,159,6.0,8.0,83,0.00,,SCT016,0.00,0.00,VWS V14.00,2013-04-11 04:46:00,
2013-04-11 00:51:00,76.1,70.6,29.96,SSE,163,8.0,12.0,83,0.00,,SCT016,0.00,0.00,VWS V14.00,2013-04-11 04:51:00,
2013-04-11 00:56:00,76.2,70.7,29.96,South,170,3.0,10.0,83,0.00,,SCT016,0.00,0.00,VWS V14.00,2013-04-11 04:56:00,
2013-04-11 01:01:00,76.2,70.7,29.96,SSE,164,0.0,8.0,83,0.00,,SCT016,0.00,0.00,VWS V14.00,2013-04-11 05:01:00,
2013-04-11 01:06:00,76.1,70.9,29.96,SSE,150,10.0,13.0,84,0.00,,SCT016,0.00,0.00,VWS V14.00,2013-04-11 05:06:00,
2013-04-11 01:12:00,76.0,70.8,29.96,South,171,4.0,10.0,84,0.00,,SCT016,0.00,0.00,VWS V14.00,2013-04-11 05:12:00,
2013-04-11 01:17:00,76.1,70.9,29.96,South,169,5.0,6.0,84,0.00,,SCT016,0.00,0.00,VWS V14.00,2013-04-11 05:17:00,
2013-04-11 01:22:00,76.1,70.9,29.95,SSE,167,7.0,13.0,84,0.00,,SCT016,0.00,0.00,VWS V14.00,2013-04-11 05:22:00,
2013-04-11 01:27:00,76.2,71.0,29.95,SSE,163,9.0,12.0,84,0.00,,SCT016,0.00,0.00,VWS V14.00,2013-04-11 05:27:00,
2013-04-11 01:32:00,76.1,70.9,29.95,SSE,168,2.0,9.0,84,0.00,,SCT016,0.00,0.00,VWS V14.00,2013-04-11 05:32:00,
2013-04-11 01:37:00,76.0,70.8,29.95,SSE,163,7.0,11.0,84,0.00,,SCT016,0.00,0.00,VWS V14.00,2013-04-11 05:37:00,
2013-04-11 01:42:00,76.0,70.8,29.94,SSE,154,7.0,15.0,84,0.00,,SCT016,0.00,0.00,VWS V14.00,2013-04-11 05:42:00,
2013-04-11 01:47:00,76.0,71.2,29.94,SSE,165,10.0,14.0,85,0.00,,SCT016,0.00,0.00,VWS V14.00,2013-04-11 05:47:00,
2013-04-11 01:52:00,75.9,71.1,29.94,SSE,161,7.0,14.0,85,0.00,,SCT016,0.00,0.00,VWS V14.00,2013-04-11 05:52:00,
2013-04-11 01:58:00,75.9,71.1,29.94,SSE,165,5.0,12.0,85,0.00,,SCT016,0.00,0.00,VWS V14.00,2013-04-11 05:58:00,
2013-04-11 02:03:00,75.8,71.0,29.94,SE,135,10.0,12.0,85,0.00,,SCT016,0.00,0.00,VWS V14.00,2013-04-11 06:03:00,
2013-04-11 02:08:00,75.8,71.0,29.93,South,174,7.0,14.0,85,0.00,,SCT016,0.00,0.00,VWS V14.00,2013-04-11 06:08:00,
2013-04-11 02:13:00,75.8,71.0,29.93,SSE,157,7.0,16.0,85,0.00,,SCT016,0.00,0.00,VWS V14.00,2013-04-11 06:13:00,
2013-04-11 02:18:00,75.7,70.9,29.93,SSE,159,11.0,13.0,85,0.00,,SCT016,0.00,0.00,VWS V14.00,2013-04-11 06:18:00,
2013-04-11 02:23:00,75.7,70.9,29.92,SSE,164,9.0,13.0,85,0.00,,SCT016,0.00,0.00,VWS V14.00,2013-04-11 06:23:00,
2013-04-11 02:28:00,75.7,70.9,29.92,SSE,165,6.0,15.0,85,0.00,,SCT016,0.00,0.00,VWS V14.00,2013-04-11 06:28:00,
2013-04-11 02:33:00,75.8,71.0,29.92,SSE,148,10.0,13.0,85,0.00,,SCT016,0.00,0.00,VWS V14.00,2013-04-11 06:33:00,
2013-04-11 02:38:00,75.8,71.0,29.92,SSE,163,6.0,15.0,85,0.00,,SCT016,0.00,0.00,VWS V14.00,2013-04-11 06:38:00,
2013-04-11 02:43:00,75.8,71.0,29.92,South,179,5.0,12.0,85,0.00,,SCT016,0.00,0.00,VWS V14.00,2013-04-11 06:43:00,
2013-04-11 02:48:00,75.8,71.0,29.92,South,171,6.0,13.0,85,0.00,,SCT016,0.00,0.00,VWS V14.00,2013-04-11 06:48:00,
2013-04-11 02:53:00,75.9,71.1,29.92,SSE,165,7.0,9.0,85,0.00,,SCT016,0.00,0.00,VWS V14.00,2013-04-11 06:53:00,
2013-04-11 02:58:00,75.8,71.0,29.92,SSE,163,6.0,12.0,85,0.00,,SCT016,0.00,0.00,VWS V14.00,2013-04-11 06:58:00,
2013-04-11 03:03:00,75.8,71.0,29.92,South,172,6.0,14.0,85,0.00,,SCT016,0.00,0.00,VWS V14.00,2013-04-11 07:03:00,
2013-04-11 03:08:00,75.8,71.0,29.91,South,180,6.0,11.0,85,0.00,,SCT016,0.00,0.00,VWS V14.00,2013-04-11 07:08:00,
2013-04-11 03:13:00,75.7,70.9,29.91,South,169,0.0,5.0,85,0.00,,SCT016,0.00,0.00,VWS V14.00,2013-04-11 07:13:00,
2013-04-11 03:18:00,75.6,70.8,29.91,South,175,3.0,7.0,85,0.00,,SCT016,0.00,0.00,VWS V14.00,2013-04-11 07:18:00,
2013-04-11 03:24:00,75.6,70.8,29.91,SSE,162,7.0,13.0,85,0.00,,SCT016,0.00,0.00,VWS V14.00,2013-04-11 07:24:00,
2013-04-11 03:29:00,75.6,70.8,29.91,South,178,3.0,5.0,85,0.00,,SCT016,0.00,0.00,VWS V14.00,2013-04-11 07:29:00,
2013-04-11 03:34:00,75.6,70.8,29.91,South,185,9.0,13.0,85,0.00,,SCT016,0.00,0.00,VWS V14.00,2013-04-11 07:34:00,
2013-04-11 03:39:00,75.6,70.8,29.91,South,178,4.0,11.0,85,0.00,,SCT016,0.00,0.00,VWS V14.00,2013-04-11 07:39:00,
2013-04-11 03:44:00,75.6,70.8,29.91,South,180,6.0,15.0,85,0.00,,SCT016,0.00,0.00,VWS V14.00,2013-04-11 07:44:00,
2013-04-11 03:49:00,75.6,70.8,29.91,SSE,161,1.0,4.0,85,0.00,,SCT016,0.00,0.00,VWS V14.00,2013-04-11 07:49:00,
2013-04-11 03:54:00,75.5,70.7,29.91,South,176,5.0,12.0,85,0.00,,SCT016,0.00,0.00,VWS V14.00,2013-04-11 07:54:00,
2013-04-11 03:59:00,75.5,70.3,29.91,South,173,5.0,6.0,84,0.00,,SCT016,0.00,0.00,VWS V14.00,2013-04-11 07:59:00,
2013-04-11 04:04:00,75.5,70.3,29.91,South,173,6.0,12.0,84,0.00,,SCT016,0.00,0.00,VWS V14.00,2013-04-11 08:04:00,
2013-04-11 04:09:00,75.5,70.3,29.91,South,170,5.0,7.0,84,0.00,,SCT016,0.00,0.00,VWS V14.00,2013-04-11 08:09:00,
2013-04-11 04:14:00,75.5,70.3,29.90,South,169,5.0,6.0,84,0.00,,SCT016,0.00,0.00,VWS V14.00,2013-04-11 08:14:00,
2013-04-11 04:19:00,75.5,70.3,29.91,South,169,5.0,7.0,84,0.00,,SCT016,0.00,0.00,VWS V14.00,2013-04-11 08:19:00,
2013-04-11 04:24:00,75.4,70.6,29.91,South,172,1.0,6.0,85,0.00,,SCT016,0.00,0.00,VWS V14.00,2013-04-11 08:24:00,
2013-04-11 04:29:00,75.4,70.6,29.91,SSE,155,10.0,10.0,85,0.00,,SCT016,0.00,0.00,VWS V14.00,2013-04-11 08:29:00,
2013-04-11 04:34:00,75.4,70.6,29.91,South,170,9.0,9.0,85,0.00,,SCT016,0.00,0.00,VWS V14.00,2013-04-11 08:34:00,
2013-04-11 04:39:00,75.4,70.6,29.91,South,188,4.0,10.0,85,0.00,,SCT016,0.00,0.00,VWS V14.00,2013-04-11 08:39:00,
2013-04-11 04:45:00,75.5,70.7,29.91,SSE,167,9.0,13.0,85,0.00,,SCT016,0.00,0.00,VWS V14.00,2013-04-11 08:45:00,
2013-04-11 04:50:00,75.6,70.4,29.91,South,175,4.0,12.0,84,0.00,,SCT016,0.01,0.00,VWS V14.00,2013-04-11 08:50:00,
2013-04-11 04:55:00,75.7,70.5,29.91,South,175,0.0,6.0,84,0.00,,SCT016,0.01,0.00,VWS V14.00,2013-04-11 08:55:00,
2013-04-11 05:00:00,75.8,70.6,29.91,South,182,2.0,9.0,84,0.00,,SCT016,0.01,0.00,VWS V14.00,2013-04-11 09:00:00,
2013-04-11 05:05:00,75.8,70.6,29.90,South,175,1.0,9.0,84,0.00,,SCT016,0.01,0.00,VWS V14.00,2013-04-11 09:05:00,
2013-04-11 05:10:00,75.9,70.7,29.90,SSE,157,6.0,7.0,84,0.00,,SCT016,0.01,0.00,VWS V14.00,2013-04-11 09:10:00,
2013-04-11 05:15:00,75.8,70.6,29.91,South,190,5.0,7.0,84,0.00,,SCT016,0.01,0.00,VWS V14.00,2013-04-11 09:15:00,
2013-04-11 05:20:00,75.8,70.6,29.91,South,179,10.0,15.0,84,0.00,,SCT016,0.01,0.00,VWS V14.00,2013-04-11 09:20:00,
2013-04-11 05:25:00,75.8,70.6,29.91,South,180,0.0,7.0,84,0.00,,SCT016,0.01,0.00,VWS V14.00,2013-04-11 09:25:00,
2013-04-11 05:30:00,75.7,70.5,29.90,South,173,4.0,9.0,84,0.00,,SCT016,0.01,0.00,VWS V14.00,2013-04-11 09:30:00,
2013-04-11 05:35:00,75.7,70.5,29.90,SSE,164,2.0,6.0,84,0.00,,SCT016,0.01,0.00,VWS V14.00,2013-04-11 09:35:00,
2013-04-11 05:40:00,75.6,70.4,29.90,South,176,6.0,15.0,84,0.00,,SCT016,0.01,0.00,VWS V14.00,2013-04-11 09:40:00,
2013-04-11 05:45:00,75.6,70.8,29.91,SSE,167,4.0,15.0,85,0.00,,SCT016,0.01,0.00,VWS V14.00,2013-04-11 09:45:00,
2013-04-11 05:50:00,75.5,70.7,29.90,South,169,7.0,10.0,85,0.00,,SCT016,0.01,0.00,VWS V14.00,2013-04-11 09:50:00,
2013-04-11 05:55:00,75.5,70.7,29.90,SSE,161,5.0,11.0,85,0.00,,SCT016,0.01,0.00,VWS V14.00,2013-04-11 09:55:00,
2013-04-11 06:00:00,75.5,70.7,29.91,South,189,10.0,12.0,85,0.00,,SCT016,0.01,0.00,VWS V14.00,2013-04-11 10:00:00,
2013-04-11 06:05:00,75.5,70.7,29.91,SSE,163,6.0,9.0,85,0.00,,SCT016,0.01,0.00,VWS V14.00,2013-04-11 10:05:00,
2013-04-11 06:10:00,75.5,70.3,29.91,South,176,3.0,7.0,84,0.00,,SCT016,0.01,0.00,VWS V14.00,2013-04-11 10:10:00,
2013-04-11 06:15:00,75.5,70.3,29.91,SSE,165,7.0,12.0,84,0.00,,SCT016,0.01,0.00,VWS V14.00,2013-04-11 10:15:00,
2013-04-11 06:20:00,75.5,70.3,29.91,SSE,165,6.0,10.0,84,0.00,,SCT016,0.01,0.00,VWS V14.00,2013-04-11 10:20:00,
2013-04-11 06:25:00,75.5,70.3,29.92,SSE,157,9.0,9.0,84,0.00,,SCT016,0.01,0.00,VWS V14.00,2013-04-11 10:25:00,
2013-04-11 06:30:00,75.5,70.3,29.92,SSE,166,5.0,9.0,84,0.00,,SCT016,0.01,0.00,VWS V14.00,2013-04-11 10:30:00,
2013-04-11 06:35:00,75.5,70.3,29.92,South,173,3.0,10.0,84,0.00,,SCT016,0.01,0.00,VWS V14.00,2013-04-11 10:35:00,
2013-04-11 06:40:00,75.6,70.4,29.92,SSE,150,7.0,11.0,84,0.00,,SCT016,0.01,0.00,VWS V14.00,2013-04-11 10:40:00,
2013-04-11 06:45:00,75.6,70.4,29.92,SSE,165,5.0,9.0,84,0.00,,SCT016,0.01,0.00,VWS V14.00,2013-04-11 10:45:00,
2013-04-11 06:50:00,75.6,70.4,29.92,South,182,8.0,13.0,84,0.00,,SCT016,0.01,0.00,VWS V14.00,2013-04-11 10:50:00,
2013-04-11 06:55:00,75.7,70.5,29.92,SSE,156,12.0,15.0,84,0.00,,SCT016,0.01,0.00,VWS V14.00,2013-04-11 10:55:00,
2013-04-11 07:00:00,75.7,70.5,29.92,South,186,1.0,11.0,84,0.00,,SCT016,0.01,0.00,VWS V14.00,2013-04-11 11:00:00,
2013-04-11 07:05:00,75.8,70.6,29.92,South,175,4.0,9.0,84,0.00,,SCT016,0.01,0.00,VWS V14.00,2013-04-11 11:05:00,
2013-04-11 07:10:00,75.8,70.6,29.92,South,177,8.0,13.0,84,0.00,,SCT016,0.01,0.00,VWS V14.00,2013-04-11 11:10:00,
2013-04-11 07:15:00,75.8,70.3,29.93,SSE,164,7.0,11.0,83,0.00,,SCT016,0.01,0.00,VWS V14.00,2013-04-11 11:15:00,
2013-04-11 07:20:00,75.9,70.7,29.93,South,175,4.0,12.0,84,0.00,,SCT016,0.01,5.00,VWS V14.00,2013-04-11 11:20:00,
2013-04-11 07:25:00,75.9,70.7,29.93,South,171,4.0,7.0,84,0.00,,SCT016,0.01,5.00,VWS V14.00,2013-04-11 11:25:00,
2013-04-11 07:30:00,75.9,70.4,29.93,South,170,9.0,14.0,83,0.00,,SCT016,0.01,7.00,VWS V14.00,2013-04-11 11:30:00,
2013-04-11 07:35:00,76.0,70.5,29.93,SSE,165,5.0,11.0,83,0.00,,SCT016,0.01,23.00,VWS V14.00,2013-04-11 11:35:00,
2013-04-11 07:40:00,76.0,70.8,29.93,SSE,159,9.0,11.0,84,0.00,,SCT016,0.01,35.00,VWS V14.00,2013-04-11 11:40:00,
2013-04-11 07:45:00,75.7,70.9,29.93,South,174,0.0,7.0,85,0.00,,SCT016,0.01,18.00,VWS V14.00,2013-04-11 11:45:00,
2013-04-11 07:50:00,75.5,70.7,29.94,SSE,159,11.0,11.0,85,0.00,,SCT016,0.01,16.00,VWS V14.00,2013-04-11 11:50:00,
2013-04-11 07:55:00,75.4,70.9,29.94,SSE,166,4.0,6.0,86,0.00,,SCT016,0.01,16.00,VWS V14.00,2013-04-11 11:55:00,
2013-04-11 08:00:00,75.3,70.8,29.94,SSE,163,10.0,15.0,86,0.00,,SCT016,0.01,16.00,VWS V14.00,2013-04-11 12:00:00,
2013-04-11 08:05:00,75.4,70.9,29.94,SSE,165,9.0,10.0,86,0.00,,SCT016,0.01,23.00,VWS V14.00,2013-04-11 12:05:00,
2013-04-11 08:10:00,75.5,71.0,29.94,South,170,3.0,10.0,86,0.00,,SCT016,0.01,28.00,VWS V14.00,2013-04-11 12:10:00,
2013-04-11 08:15:00,75.6,71.1,29.94,South,175,11.0,11.0,86,0.00,,SCT016,0.01,28.00,VWS V14.00,2013-04-11 12:15:00,
2013-04-11 08:20:00,75.7,70.9,29.94,South,178,6.0,12.0,85,0.00,,SCT016,0.01,25.00,VWS V14.00,2013-04-11 12:20:00,
2013-04-11 08:25:00,75.9,71.1,29.94,SSE,163,9.0,11.0,85,0.00,,SCT016,0.01,30.00,VWS V14.00,2013-04-11 12:25:00,
2013-04-11 08:30:00,76.1,70.9,29.94,South,178,3.0,6.0,84,0.00,,SCT016,0.01,30.00,VWS V14.00,2013-04-11 12:30:00,
2013-04-11 08:36:00,76.2,71.0,29.95,South,169,2.0,6.0,84,0.00,,BKN030,0.01,35.00,VWS V14.00,2013-04-11 12:36:00,
2013-04-11 08:41:00,76.3,71.1,29.95,South,169,8.0,17.0,84,0.00,,BKN030,0.01,39.00,VWS V14.00,2013-04-11 12:41:00,
2013-04-11 08:46:00,76.4,70.9,29.95,SSE,167,17.0,19.0,83,0.00,,BKN030,0.01,33.00,VWS V14.00,2013-04-11 12:46:00,
2013-04-11 08:52:00,76.5,71.0,29.95,South,180,11.0,16.0,83,0.00,,BKN030,0.01,35.00,VWS V14.00,2013-04-11 12:52:00,
2013-04-11 08:57:00,76.6,71.1,29.95,South,179,7.0,13.0,83,0.00,,BKN030,0.01,39.00,VWS V14.00,2013-04-11 12:57:00,
2013-04-11 09:02:00,76.7,71.2,29.95,South,169,11.0,14.0,83,0.00,,BKN030,0.01,37.00,VWS V14.00,2013-04-11 13:02:00,
2013-04-11 09:07:00,76.7,70.8,29.95,SSE,165,9.0,16.0,82,0.00,,BKN030,0.01,42.00,VWS V14.00,2013-04-11 13:07:00,
2013-04-11 09:12:00,76.8,70.9,29.95,South,176,11.0,14.0,82,0.00,,BKN030,0.01,40.00,VWS V14.00,2013-04-11 13:12:00,
2013-04-11 09:17:00,76.9,71.0,29.95,South,175,4.0,11.0,82,0.00,,BKN030,0.01,58.00,VWS V14.00,2013-04-11 13:17:00,
2013-04-11 09:22:00,77.0,70.7,29.96,SSE,150,4.0,16.0,81,0.00,,BKN030,0.01,54.00,VWS V14.00,2013-04-11 13:22:00,
2013-04-11 09:27:00,77.2,71.3,29.95,SSW,192,10.0,11.0,82,0.00,,BKN030,0.01,62.00,VWS V14.00,2013-04-11 13:27:00,
2013-04-11 09:32:00,77.2,70.9,29.96,SSW,194,10.0,13.0,81,0.00,,BKN030,0.01,79.00,VWS V14.00,2013-04-11 13:32:00,
2013-04-11 09:37:00,77.4,71.1,29.95,SSW,198,10.0,20.0,81,0.00,,BKN030,0.01,63.00,VWS V14.00,2013-04-11 13:37:00,
2013-04-11 09:42:00,77.6,70.9,29.96,South,172,7.0,14.0,80,0.00,,BKN030,0.01,190.00,VWS V14.00,2013-04-11 13:42:00,
2013-04-11 09:47:00,78.2,71.2,29.96,SSE,168,12.0,13.0,79,0.00,,BKN030,0.01,153.00,VWS V14.00,2013-04-11 13:47:00,
2013-04-11 09:52:00,78.3,70.9,29.96,SSW,201,15.0,16.0,78,0.00,,BKN030,0.01,181.00,VWS V14.00,2013-04-11 13:52:00,
2013-04-11 09:57:00,78.2,71.2,29.96,South,188,12.0,14.0,79,0.00,,BKN030,0.01,100.00,VWS V14.00,2013-04-11 13:57:00,
2013-04-11 10:02:00,78.3,71.3,29.96,South,169,7.0,11.0,79,0.00,,BKN030,0.01,114.00,VWS V14.00,2013-04-11 14:02:00,
2013-04-11 10:07:00,78.4,71.3,29.96,South,191,12.0,13.0,79,0.00,,BKN030,0.01,221.00,VWS V14.00,2013-04-11 14:07:00,
2013-04-11 10:12:00,78.7,71.3,29.97,SSE,159,8.0,14.0,78,0.00,,BKN030,0.01,123.00,VWS V14.00,2013-04-11 14:12:00,
2013-04-11 10:17:00,78.7,71.3,29.97,SSE,155,14.0,17.0,78,0.00,,BKN030,0.01,156.00,VWS V14.00,2013-04-11 14:17:00,
2013-04-11 10:22:00,78.8,71.4,29.96,South,179,12.0,15.0,78,0.00,,BKN030,0.01,123.00,VWS V14.00,2013-04-11 14:22:00,
2013-04-11 10:28:00,79.1,72.0,29.97,SSW,197,11.0,11.0,79,0.00,,BKN030,0.01,250.00,VWS V14.00,2013-04-11 14:28:00,
2013-04-11 10:33:00,79.7,71.9,29.97,South,190,16.0,17.0,77,0.00,,BKN019,0.01,167.00,VWS V14.00,2013-04-11 14:33:00,
2013-04-11 10:38:00,79.7,71.5,29.97,South,178,15.0,19.0,76,0.00,,BKN019,0.01,257.00,VWS V14.00,2013-04-11 14:38:00,
2013-04-11 10:43:00,79.7,71.5,29.97,South,181,8.0,18.0,76,0.00,,BKN019,0.01,253.00,VWS V14.00,2013-04-11 14:43:00,
2013-04-11 10:48:00,79.7,71.5,29.97,South,190,11.0,20.0,76,0.00,,BKN019,0.01,257.00,VWS V14.00,2013-04-11 14:48:00,
2013-04-11 10:53:00,79.7,71.5,29.97,SSE,156,14.0,16.0,76,0.00,,BKN019,0.01,116.00,VWS V14.00,2013-04-11 14:53:00,
2013-04-11 10:58:00,79.5,71.7,29.97,SSE,158,11.0,23.0,77,0.00,,BKN019,0.01,186.00,VWS V14.00,2013-04-11 14:58:00,
2013-04-11 11:03:00,79.3,71.5,29.97,SSE,155,15.0,17.0,77,0.00,,BKN019,0.01,98.00,VWS V14.00,2013-04-11 15:03:00,
2013-04-11 11:08:00,79.3,71.5,29.97,SSW,210,11.0,11.0,77,0.00,,BKN019,0.01,132.00,VWS V14.00,2013-04-11 15:08:00,
2013-04-11 11:13:00,79.5,71.7,29.97,South,188,3.0,14.0,77,0.00,,BKN019,0.01,162.00,VWS V14.00,2013-04-11 15:13:00,
2013-04-11 11:18:00,79.7,71.5,29.97,SSE,162,10.0,12.0,76,0.00,,BKN019,0.01,107.00,VWS V14.00,2013-04-11 15:18:00,
2013-04-11 11:23:00,79.9,71.7,29.97,South,170,11.0,11.0,76,0.00,,BKN019,0.01,213.00,VWS V14.00,2013-04-11 15:23:00,
2013-04-11 11:28:00,80.2,71.6,29.97,South,170,9.0,13.0,75,0.00,,BKN019,0.01,213.00,VWS V14.00,2013-04-11 15:28:00,
2013-04-11 11:33:00,80.3,71.7,29.96,South,186,6.0,15.0,75,0.00,,BKN019,0.01,102.00,VWS V14.00,2013-04-11 15:33:00,
2013-04-11 11:38:00,80.5,71.8,29.96,SSE,165,15.0,20.0,75,0.00,,BKN019,0.01,244.00,VWS V14.00,2013-04-11 15:38:00,
2013-04-11 11:43:00,80.3,71.3,29.96,South,182,15.0,19.0,74,0.00,,BKN019,0.01,209.00,VWS V14.00,2013-04-11 15:43:00,
2013-04-11 11:48:00,80.3,72.1,29.95,SSW,197,4.0,15.0,76,0.00,,BKN019,0.01,125.00,VWS V14.00,2013-04-11 15:48:00,
2013-04-11 11:53:00,80.7,71.7,29.95,South,170,10.0,10.0,74,0.00,,BKN019,0.01,220.00,VWS V14.00,2013-04-11 15:53:00,
2013-04-11 11:58:00,80.8,71.7,29.95,South,178,9.0,14.0,74,0.00,,BKN019,0.01,206.00,VWS V14.00,2013-04-11 15:58:00,
2013-04-11 12:03:00,80.7,71.2,29.95,SSE,163,12.0,16.0,73,0.00,,BKN019,0.01,190.00,VWS V14.00,2013-04-11 16:03:00,
2013-04-11 12:08:00,80.8,71.7,29.95,South,169,10.0,12.0,74,0.00,,BKN019,0.01,236.00,VWS V14.00,2013-04-11 16:08:00,
2013-04-11 12:13:00,80.9,71.8,29.95,South,176,5.0,19.0,74,0.00,,BKN019,0.01,116.00,VWS V14.00,2013-04-11 16:13:00,
2013-04-11 12:18:00,80.9,71.4,29.95,South,184,13.0,21.0,73,0.00,,BKN019,0.01,120.00,VWS V14.00,2013-04-11 16:18:00,
2013-04-11 12:23:00,80.7,71.7,29.96,South,182,11.0,14.0,74,0.00,,BKN019,0.01,113.00,VWS V14.00,2013-04-11 16:23:00,
2013-04-11 12:28:00,80.3,71.3,29.95,South,174,14.0,15.0,74,0.00,,BKN019,0.02,116.00,VWS V14.00,2013-04-11 16:28:00,
2013-04-11 12:33:00,80.5,71.5,29.96,SSW,206,11.0,19.0,74,0.00,,SCT019,0.02,220.00,VWS V14.00,2013-04-11 16:33:00,
2013-04-11 12:38:00,80.9,71.8,29.95,SSE,162,13.0,17.0,74,0.00,,SCT019,0.02,204.00,VWS V14.00,2013-04-11 16:38:00,
2013-04-11 12:43:00,81.1,71.6,29.95,South,175,5.0,12.0,73,0.00,,SCT019,0.02,125.00,VWS V14.00,2013-04-11 16:43:00,
2013-04-11 12:49:00,81.1,71.6,29.95,South,169,10.0,12.0,73,0.00,,SCT019,0.02,139.00,VWS V14.00,2013-04-11 16:49:00,
2013-04-11 12:54:00,81.6,72.1,29.95,South,177,7.0,14.0,73,0.00,,SCT019,0.02,114.00,VWS V14.00,2013-04-11 16:54:00,
2013-04-11 12:59:00,81.5,71.6,29.95,SW,214,9.0,20.0,72,0.00,,SCT019,0.02,121.00,VWS V14.00,2013-04-11 16:59:00,
2013-04-11 13:04:00,81.3,71.4,29.95,SSE,165,8.0,14.0,72,0.00,,SCT019,0.02,109.00,VWS V14.00,2013-04-11 17:04:00,
2013-04-11 13:09:00,80.9,71.8,29.95,South,180,14.0,19.0,74,0.00,,SCT019,0.02,176.00,VWS V14.00,2013-04-11 17:09:00,
2013-04-11 13:14:00,80.9,71.4,29.95,South,179,16.0,18.0,73,0.00,,SCT019,0.02,234.00,VWS V14.00,2013-04-11 17:14:00,
2013-04-11 13:19:00,81.4,71.9,29.94,South,186,8.0,10.0,73,0.00,,SCT019,0.02,250.00,VWS V14.00,2013-04-11 17:19:00,
2013-04-11 13:24:00,82.0,72.1,29.94,SSW,198,5.0,13.0,72,0.00,,SCT019,0.02,118.00,VWS V14.00,2013-04-11 17:24:00,
2013-04-11 13:29:00,81.9,71.6,29.94,SSW,211,11.0,17.0,71,0.00,,SCT019,0.02,107.00,VWS V14.00,2013-04-11 17:29:00,
2013-04-11 13:34:00,81.6,71.7,29.94,South,170,5.0,15.0,72,0.00,,SCT020,0.02,234.00,VWS V14.00,2013-04-11 17:34:00,
2013-04-11 13:39:00,82.1,72.2,29.93,SSE,148,14.0,16.0,72,0.00,,SCT020,0.02,102.00,VWS V14.00,2013-04-11 17:39:00,
2013-04-11 13:44:00,81.4,71.9,29.93,South,183,10.0,15.0,73,0.00,,SCT020,0.02,127.00,VWS V14.00,2013-04-11 17:44:00,
2013-04-11 13:49:00,81.6,72.1,29.93,SSW,193,15.0,15.0,73,0.00,,SCT020,0.02,207.00,VWS V14.00,2013-04-11 17:49:00,
2013-04-11 13:54:00,82.1,72.2,29.92,SSW,198,11.0,16.0,72,0.00,,SCT020,0.02,104.00,VWS V14.00,2013-04-11 17:54:00,
2013-04-11 13:59:00,82.2,71.9,29.92,South,179,7.0,14.0,71,0.00,,SCT020,0.02,229.00,VWS V14.00,2013-04-11 17:59:00,
2013-04-11 14:04:00,82.6,72.2,29.92,SSE,165,12.0,23.0,71,0.00,,SCT020,0.02,214.00,VWS V14.00,2013-04-11 18:04:00,
2013-04-11 14:09:00,81.8,71.9,29.92,South,177,15.0,15.0,72,0.00,,SCT020,0.02,239.00,VWS V14.00,2013-04-11 18:09:00,
2013-04-11 14:14:00,81.4,71.9,29.92,South,173,12.0,20.0,73,0.00,,SCT020,0.02,220.00,VWS V14.00,2013-04-11 18:14:00,
2013-04-11 14:19:00,81.3,72.2,29.91,SSE,147,20.0,20.0,74,0.00,,SCT020,0.02,216.00,VWS V14.00,2013-04-11 18:19:00,
2013-04-11 14:24:00,81.0,71.9,29.92,South,179,14.0,15.0,74,0.00,,SCT020,0.02,91.00,VWS V14.00,2013-04-11 18:24:00,
2013-04-11 14:29:00,81.5,72.8,29.91,South,184,5.0,10.0,75,0.00,,SCT020,0.02,220.00,VWS V14.00,2013-04-11 18:29:00,
2013-04-11 14:34:00,81.7,71.8,29.91,South,191,10.0,15.0,72,0.00,,SCT020,0.02,93.00,VWS V14.00,2013-04-11 18:34:00,
2013-04-11 14:39:00,81.3,71.8,29.91,SSE,153,10.0,22.0,73,0.00,,SCT020,0.02,195.00,VWS V14.00,2013-04-11 18:39:00,
2013-04-11 14:44:00,81.4,72.3,29.91,South,189,10.0,14.0,74,0.00,,SCT020,0.02,216.00,VWS V14.00,2013-04-11 18:44:00,
2013-04-11 14:49:00,81.4,71.9,29.91,South,182,11.0,16.0,73,0.00,,SCT020,0.02,98.00,VWS V14.00,2013-04-11 18:49:00,
2013-04-11 14:54:00,81.5,71.6,29.90,South,173,1.0,13.0,72,0.00,,SCT020,0.02,204.00,VWS V14.00,2013-04-11 18:54:00,
2013-04-11 14:59:00,81.8,71.9,29.90,South,177,11.0,22.0,72,0.00,,SCT020,0.02,204.00,VWS V14.00,2013-04-11 18:59:00,
2013-04-11 15:04:00,81.6,72.1,29.90,South,174,5.0,15.0,73,0.00,,SCT020,0.02,137.00,VWS V14.00,2013-04-11 19:04:00,
2013-04-11 15:09:00,81.3,72.2,29.90,SSW,199,9.0,15.0,74,0.00,,SCT020,0.02,193.00,VWS V14.00,2013-04-11 19:09:00,
2013-04-11 15:14:00,81.7,72.6,29.90,South,188,13.0,17.0,74,0.00,,SCT020,0.02,109.00,VWS V14.00,2013-04-11 19:14:00,
2013-04-11 15:19:00,81.7,72.2,29.89,SSE,163,2.0,15.0,73,0.00,,SCT020,0.02,211.00,VWS V14.00,2013-04-11 19:19:00,
2013-04-11 15:24:00,81.8,72.3,29.89,South,186,14.0,18.0,73,0.00,,SCT020,0.02,209.00,VWS V14.00,2013-04-11 19:24:00,
2013-04-11 15:29:00,81.1,72.0,29.89,SSE,157,3.0,8.0,74,0.00,,SCT020,0.02,86.00,VWS V14.00,2013-04-11 19:29:00,
2013-04-11 15:34:00,81.3,72.2,29.88,SSW,199,6.0,14.0,74,0.00,,SCT020,0.02,220.00,VWS V14.00,2013-04-11 19:34:00,
2013-04-11 15:39:00,81.6,72.1,29.88,South,186,14.0,17.0,73,0.00,,SCT020,0.02,97.00,VWS V14.00,2013-04-11 19:39:00,
2013-04-11 15:44:00,81.4,71.9,29.88,South,171,5.0,13.0,73,0.00,,SCT020,0.02,93.00,VWS V14.00,2013-04-11 19:44:00,
2013-04-11 15:50:00,81.3,72.2,29.88,South,181,7.0,21.0,74,0.00,,SCT020,0.02,190.00,VWS V14.00,2013-04-11 19:50:00,
2013-04-11 15:55:00,81.6,72.1,29.88,South,175,13.0,17.0,73,0.00,,SCT020,0.02,155.00,VWS V14.00,2013-04-11 19:55:00,
2013-04-11 16:00:00,81.5,72.0,29.88,SSW,195,12.0,17.0,73,0.00,,SCT020,0.02,105.00,VWS V14.00,2013-04-11 20:00:00,
2013-04-11 16:05:00,81.0,71.9,29.88,South,185,11.0,11.0,74,0.00,,SCT020,0.02,213.00,VWS V14.00,2013-04-11 20:05:00,
2013-04-11 16:10:00,81.2,71.7,29.88,SSE,164,16.0,16.0,73,0.00,,SCT020,0.02,141.00,VWS V14.00,2013-04-11 20:10:00,
2013-04-11 16:15:00,81.3,71.8,29.88,SSW,194,10.0,15.0,73,0.00,,SCT020,0.02,137.00,VWS V14.00,2013-04-11 20:15:00,
2013-04-11 16:20:00,81.6,72.5,29.88,SSW,204,3.0,10.0,74,0.00,,SCT020,0.02,163.00,VWS V14.00,2013-04-11 20:20:00,
2013-04-11 16:25:00,81.6,72.1,29.88,SSE,167,10.0,14.0,73,0.00,,SCT020,0.02,83.00,VWS V14.00,2013-04-11 20:25:00,
2013-04-11 16:30:00,81.5,72.4,29.87,SSE,148,12.0,17.0,74,0.00,,SCT020,0.02,128.00,VWS V14.00,2013-04-11 20:30:00,
2013-04-11 16:35:00,81.4,72.3,29.87,South,180,13.0,16.0,74,0.00,,SCT020,0.02,176.00,VWS V14.00,2013-04-11 20:35:00,
2013-04-11 16:40:00,81.0,72.3,29.87,South,173,17.0,17.0,75,0.00,,SCT020,0.02,76.00,VWS V14.00,2013-04-11 20:40:00,
2013-04-11 16:45:00,80.7,72.0,29.87,SSW,202,1.0,9.0,75,0.00,,SCT020,0.02,88.00,VWS V14.00,2013-04-11 20:45:00,
2013-04-11 16:50:00,80.8,72.1,29.86,South,190,12.0,14.0,75,0.00,,SCT020,0.02,74.00,VWS V14.00,2013-04-11 20:50:00,
2013-04-11 16:55:00,81.0,71.9,29.86,South,175,9.0,16.0,74,0.00,,SCT020,0.02,63.00,VWS V14.00,2013-04-11 20:55:00,
2013-04-11 17:00:00,80.6,71.6,29.86,SSW,194,11.0,16.0,74,0.00,,SCT020,0.02,70.00,VWS V14.00,2013-04-11 21:00:00,
2013-04-11 17:05:00,80.5,71.8,29.86,South,182,1.0,12.0,75,0.00,,SCT020,0.02,76.00,VWS V14.00,2013-04-11 21:05:00,
2013-04-11 17:10:00,80.6,71.9,29.87,SSE,149,6.0,11.0,75,0.00,,SCT020,0.02,84.00,VWS V14.00,2013-04-11 21:10:00,
2013-04-11 17:15:00,80.5,71.8,29.86,South,187,2.0,11.0,75,0.00,,SCT020,0.02,81.00,VWS V14.00,2013-04-11 21:15:00,
2013-04-11 17:20:00,80.6,72.3,29.86,South,181,9.0,13.0,76,0.00,,SCT020,0.02,63.00,VWS V14.00,2013-04-11 21:20:00,
2013-04-11 17:25:00,80.4,72.2,29.86,South,188,5.0,6.0,76,0.00,,SCT020,0.02,58.00,VWS V14.00,2013-04-11 21:25:00,
2013-04-11 17:30:00,80.3,72.1,29.86,South,184,5.0,9.0,76,0.00,,SCT020,0.02,54.00,VWS V14.00,2013-04-11 21:30:00,
2013-04-11 17:35:00,80.4,72.5,29.87,South,173,12.0,12.0,77,0.00,,BKN030,0.02,39.00,VWS V14.00,2013-04-11 21:35:00,
2013-04-11 17:40:00,80.2,72.3,29.87,South,191,9.0,13.0,77,0.00,,BKN030,0.02,32.00,VWS V14.00,2013-04-11 21:40:00,
2013-04-11 17:47:00,79.8,71.9,29.86,South,178,9.0,16.0,77,0.00,,BKN030,0.02,40.00,VWS V14.00,2013-04-11 21:47:00,
2013-04-11 17:52:00,79.6,71.8,29.86,South,185,12.0,14.0,77,0.00,,BKN030,0.02,47.00,VWS V14.00,2013-04-11 21:52:00,
2013-04-11 17:57:00,79.5,71.7,29.86,SSW,200,6.0,13.0,77,0.00,,BKN030,0.02,53.00,VWS V14.00,2013-04-11 21:57:00,
2013-04-11 18:02:00,79.5,71.7,29.87,SSE,159,14.0,14.0,77,0.00,,BKN030,0.02,37.00,VWS V14.00,2013-04-11 22:02:00,
2013-04-11 18:07:00,79.4,71.9,29.87,SSE,166,8.0,11.0,78,0.00,,BKN030,0.02,32.00,VWS V14.00,2013-04-11 22:07:00,
2013-04-11 18:12:00,79.3,71.8,29.87,SSE,162,11.0,14.0,78,0.00,,BKN030,0.02,30.00,VWS V14.00,2013-04-11 22:12:00,
2013-04-11 18:17:00,79.2,72.1,29.87,South,175,6.0,12.0,79,0.00,,BKN030,0.02,32.00,VWS V14.00,2013-04-11 22:17:00,
2013-04-11 18:22:00,79.2,72.5,29.86,SSE,160,6.0,12.0,80,0.00,,BKN030,0.02,32.00,VWS V14.00,2013-04-11 22:22:00,
2013-04-11 18:27:00,79.2,72.5,29.86,South,186,11.0,11.0,80,0.00,,BKN030,0.02,44.00,VWS V14.00,2013-04-11 22:27:00,
2013-04-11 18:32:00,79.1,72.4,29.86,SSE,153,12.0,13.0,80,0.00,,BKN060,0.02,39.00,VWS V14.00,2013-04-11 22:32:00,
2013-04-11 18:37:00,78.9,72.2,29.86,South,169,10.0,11.0,80,0.00,,BKN060,0.02,28.00,VWS V14.00,2013-04-11 22:37:00,
2013-04-11 18:42:00,78.8,72.1,29.86,SSE,167,9.0,13.0,80,0.00,,BKN060,0.02,53.00,VWS V14.00,2013-04-11 22:42:00,
2013-04-11 18:47:00,78.8,72.5,29.86,South,175,4.0,7.0,81,0.00,,BKN060,0.02,33.00,VWS V14.00,2013-04-11 22:47:00,
2013-04-11 18:52:00,78.8,72.5,29.86,South,183,10.0,10.0,81,0.00,,BKN060,0.02,30.00,VWS V14.00,2013-04-11 22:52:00,
2013-04-11 18:57:00,78.8,72.5,29.85,South,174,6.0,11.0,81,0.00,,BKN060,0.02,28.00,VWS V14.00,2013-04-11 22:57:00,
2013-04-11 19:02:00,78.7,72.4,29.86,South,171,3.0,19.0,81,0.00,,BKN060,0.02,32.00,VWS V14.00,2013-04-11 23:02:00,
2013-04-11 19:07:00,78.6,72.3,29.86,South,188,4.0,10.0,81,0.00,,BKN060,0.02,16.00,VWS V14.00,2013-04-11 23:07:00,
2013-04-11 19:12:00,78.5,72.6,29.86,South,190,5.0,13.0,82,0.00,,BKN060,0.02,11.00,VWS V14.00,2013-04-11 23:12:00,
2013-04-11 19:17:00,78.4,72.4,29.86,SSE,160,2.0,11.0,82,0.00,,BKN060,0.02,7.00,VWS V14.00,2013-04-11 23:17:00,
2013-04-11 19:22:00,78.3,72.4,29.86,SSE,161,6.0,13.0,82,0.00,,BKN060,0.02,5.00,VWS V14.00,2013-04-11 23:22:00,
2013-04-11 19:27:00,78.2,72.6,29.86,SSE,165,7.0,13.0,83,0.00,,BKN060,0.02,0.00,VWS V14.00,2013-04-11 23:27:00,
2013-04-11 19:33:00,78.1,72.5,29.86,South,179,7.0,11.0,83,0.00,,BKN045,0.02,0.00,VWS V14.00,2013-04-11 23:33:00,
2013-04-11 19:38:00,78.1,72.5,29.86,SSE,167,6.0,15.0,83,0.00,,BKN045,0.02,0.00,VWS V14.00,2013-04-11 23:38:00,
2013-04-11 19:43:00,78.0,72.4,29.86,South,180,4.0,9.0,83,0.00,,BKN045,0.02,0.00,VWS V14.00,2013-04-11 23:43:00,
2013-04-11 19:48:00,78.0,72.4,29.85,SSE,160,4.0,7.0,83,0.00,,BKN045,0.02,0.00,VWS V14.00,2013-04-11 23:48:00,
2013-04-11 19:53:00,77.9,72.3,29.85,SSW,192,10.0,13.0,83,0.00,,BKN045,0.02,0.00,VWS V14.00,2013-04-11 23:53:00,
2013-04-11 19:58:00,77.9,72.7,29.86,South,176,5.0,7.0,84,0.00,,BKN045,0.02,0.00,VWS V14.00,2013-04-11 23:58:00,
2013-04-11 20:03:00,77.8,72.6,29.86,SSE,159,10.0,12.0,84,0.00,,BKN045,0.02,0.00,VWS V14.00,2013-04-12 00:03:00,
2013-04-11 20:08:00,77.7,72.5,29.86,South,182,7.0,10.0,84,0.00,,BKN050,0.02,0.00,VWS V14.00,2013-04-12 00:08:00,
2013-04-11 20:13:00,77.7,72.5,29.85,South,171,4.0,9.0,84,0.00,,BKN050,0.02,0.00,VWS V14.00,2013-04-12 00:13:00,
2013-04-11 20:18:00,77.7,72.5,29.86,SSE,163,7.0,13.0,84,0.00,,BKN050,0.02,0.00,VWS V14.00,2013-04-12 00:18:00,
2013-04-11 20:23:00,77.6,72.4,29.85,South,174,5.0,14.0,84,0.00,,BKN050,0.02,0.00,VWS V14.00,2013-04-12 00:23:00,
2013-04-11 20:28:00,77.6,72.7,29.86,South,178,3.0,10.0,85,0.00,,BKN050,0.02,0.00,VWS V14.00,2013-04-12 00:28:00,
2013-04-11 20:33:00,77.5,72.6,29.85,South,170,9.0,12.0,85,0.00,,BKN050,0.02,0.00,VWS V14.00,2013-04-12 00:33:00,
2013-04-11 20:38:00,77.5,72.6,29.85,SSE,162,5.0,5.0,85,0.00,,BKN050,0.02,0.00,VWS V14.00,2013-04-12 00:38:00,
2013-04-11 20:43:00,77.4,72.5,29.86,South,175,2.0,12.0,85,0.00,,BKN050,0.02,0.00,VWS V14.00,2013-04-12 00:43:00,
2013-04-11 20:48:00,77.4,72.5,29.86,SSE,157,9.0,13.0,85,0.00,,BKN050,0.02,0.00,VWS V14.00,2013-04-12 00:48:00,
2013-04-11 20:53:00,77.4,72.5,29.86,South,182,7.0,16.0,85,0.00,,BKN050,0.02,0.00,VWS V14.00,2013-04-12 00:53:00,
2013-04-11 20:58:00,77.5,72.6,29.86,South,169,7.0,7.0,85,0.00,,BKN050,0.02,0.00,VWS V14.00,2013-04-12 00:58:00,
2013-04-11 21:03:00,77.4,72.5,29.86,South,177,0.0,5.0,85,0.00,,BKN050,0.02,0.00,VWS V14.00,2013-04-12 01:03:00,
2013-04-11 21:08:00,77.4,72.5,29.86,South,174,5.0,7.0,85,0.00,,BKN050,0.02,0.00,VWS V14.00,2013-04-12 01:08:00,
2013-04-11 21:13:00,77.4,72.5,29.86,SSE,155,6.0,7.0,85,0.00,,BKN050,0.02,0.00,VWS V14.00,2013-04-12 01:13:00,
2013-04-11 21:18:00,77.4,72.5,29.86,SSE,163,9.0,9.0,85,0.00,,BKN050,0.02,0.00,VWS V14.00,2013-04-12 01:18:00,
2013-04-11 21:23:00,77.4,72.5,29.87,SSE,148,8.0,8.0,85,0.00,,BKN050,0.02,0.00,VWS V14.00,2013-04-12 01:23:00,
2013-04-11 21:28:00,77.4,72.5,29.86,South,178,5.0,6.0,85,0.00,,BKN050,0.02,0.00,VWS V14.00,2013-04-12 01:28:00,
2013-04-11 21:33:00,77.3,72.4,29.86,SSE,167,0.0,6.0,85,0.00,,SCT030,0.02,0.00,VWS V14.00,2013-04-12 01:33:00,
2013-04-11 21:38:00,77.4,72.5,29.86,South,171,4.0,5.0,85,0.00,,SCT030,0.02,0.00,VWS V14.00,2013-04-12 01:38:00,
2013-04-11 21:43:00,77.4,72.5,29.87,South,177,5.0,8.0,85,0.00,,SCT030,0.02,0.00,VWS V14.00,2013-04-12 01:43:00,
2013-04-11 21:48:00,77.4,72.5,29.87,South,178,4.0,7.0,85,0.00,,SCT030,0.02,0.00,VWS V14.00,2013-04-12 01:48:00,
2013-04-11 21:53:00,77.4,72.5,29.87,SSE,162,5.0,10.0,85,0.00,,SCT030,0.02,0.00,VWS V14.00,2013-04-12 01:53:00,
2013-04-11 21:58:00,77.5,73.0,29.87,South,169,7.0,11.0,86,0.00,,SCT030,0.02,0.00,VWS V14.00,2013-04-12 01:58:00,
2013-04-11 22:03:00,77.5,73.0,29.87,SSE,166,2.0,9.0,86,0.00,,SCT030,0.02,0.00,VWS V14.00,2013-04-12 02:03:00,
2013-04-11 22:08:00,77.5,73.0,29.88,South,171,0.0,6.0,86,0.00,,SCT030,0.02,0.00,VWS V14.00,2013-04-12 02:08:00,
2013-04-11 22:13:00,77.4,72.9,29.88,South,180,4.0,8.0,86,0.00,,SCT030,0.02,0.00,VWS V14.00,2013-04-12 02:13:00,
2013-04-11 22:18:00,77.4,72.9,29.88,South,186,6.0,6.0,86,0.00,,SCT030,0.02,0.00,VWS V14.00,2013-04-12 02:18:00,
2013-04-11 22:23:00,77.3,72.4,29.88,SSE,167,5.0,10.0,85,0.00,,SCT030,0.02,0.00,VWS V14.00,2013-04-12 02:23:00,
2013-04-11 22:28:00,77.4,72.5,29.88,South,180,4.0,7.0,85,0.00,,SCT030,0.02,0.00,VWS V14.00,2013-04-12 02:28:00,
2013-04-11 22:34:00,77.4,72.9,29.87,South,182,0.0,10.0,86,0.00,,SCT040,0.02,0.00,VWS V14.00,2013-04-12 02:34:00,
2013-04-11 22:39:00,77.5,73.0,29.87,South,179,5.0,11.0,86,0.00,,SCT040,0.02,0.00,VWS V14.00,2013-04-12 02:39:00,
2013-04-11 22:44:00,77.5,73.0,29.87,South,181,5.0,9.0,86,0.00,,SCT040,0.02,0.00,VWS V14.00,2013-04-12 02:44:00,
2013-04-11 22:49:00,77.5,73.0,29.87,South,186,11.0,14.0,86,0.00,,SCT040,0.02,0.00,VWS V14.00,2013-04-12 02:49:00,
2013-04-11 22:54:00,77.5,73.0,29.87,SSW,193,4.0,7.0,86,0.00,,SCT040,0.02,0.00,VWS V14.00,2013-04-12 02:54:00,
2013-04-11 22:59:00,77.4,73.2,29.87,South,179,10.0,11.0,87,0.00,,SCT040,0.02,0.00,VWS V14.00,2013-04-12 02:59:00,
2013-04-11 23:04:00,77.4,73.2,29.87,SSW,192,9.0,14.0,87,0.00,,SCT040,0.02,0.00,VWS V14.00,2013-04-12 03:04:00,
2013-04-11 23:09:00,77.4,73.2,29.86,South,191,0.0,10.0,87,0.00,,SCT040,0.02,0.00,VWS V14.00,2013-04-12 03:09:00,
2013-04-11 23:14:00,77.4,73.2,29.86,SSE,167,6.0,11.0,87,0.00,,SCT040,0.02,0.00,VWS V14.00,2013-04-12 03:14:00,
2013-04-11 23:19:00,77.4,73.2,29.86,South,174,16.0,16.0,87,0.00,,SCT040,0.02,0.00,VWS V14.00,2013-04-12 03:19:00,
2013-04-11 23:24:00,77.4,73.2,29.86,South,184,4.0,10.0,87,0.00,,SCT040,0.02,0.00,VWS V14.00,2013-04-12 03:24:00,
2013-04-11 23:29:00,77.4,73.2,29.86,SSW,196,4.0,10.0,87,0.00,,SCT040,0.02,0.00,VWS V14.00,2013-04-12 03:29:00,
2013-04-11 23:34:00,77.3,73.1,29.86,South,175,8.0,9.0,87,0.00,,SCT040,0.02,0.00,VWS V14.00,2013-04-12 03:34:00,
2013-04-11 23:39:00,77.3,72.8,29.86,South,191,3.0,9.0,86,0.00,,SCT040,0.02,0.00,VWS V14.00,2013-04-12 03:39:00,
2013-04-11 23:44:00,77.3,72.8,29.86,SW,216,6.0,17.0,86,0.00,,SCT040,0.02,0.00,VWS V14.00,2013-04-12 03:44:00,
2013-04-11 23:49:00,77.3,72.8,29.86,South,190,7.0,14.0,86,0.00,,SCT040,0.02,0.00,VWS V14.00,2013-04-12 03:49:00,
2013-04-11 23:54:00,77.3,72.8,29.86,SSW,194,6.0,12.0,86,0.00,,SCT040,0.02,0.00,VWS V14.00,2013-04-12 03:54:00,
2013-04-11 23:59:00,77.3,72.8,29.86,South,169,3.0,11.0,86,0.00,,SCT040,0.02,0.00,VWS V14.00,2013-04-12 03:59:00,